sat.trackr.live / text

‹ back to catalog

STARLINK-38078

NORAD 69744 · 2026-150F

PAYLOAD ACTIVE UNKNOWN

§ Identity

Operator
Country
US
Launch date
2026-07-02
Launch site
AFWTR
Launch vehicle
Mass (kg)
RCS (m²)

Purposes: comms

External: N2YO · Heavens-Above · Gunter

§ Orbital elements

Epoch: 2026-09-19T23:46:29.599104Z

Period
93.91 min
Inclination
97.2837°
Eccentricity
0.0001776
Mean motion
15.33446260 rev/d
Perigee alt
464.3 km
Apogee alt
466.8 km
Semi-major
6,843.7 km
B*
4.2722e-4
RAAN
101.8611°
Arg perigee
87.0780°
Mean anomaly
273.0666°
Rev number
1,365

§ Raw data

STARLINK-380781 69744U 26150F   26262.99062036  .00013743  00000+0  42722-3 0  99942 69744  97.2837 101.8611 0001776  87.0780 273.0666 15.33446260 13656

JSON: /api/v1/satellites/69744 · /tle

For live sub-satellite position, see the globe view (requires WebGL).

§ Visibility from observer

Set your observer location to see the next 7 days of passes ≥ 10°. The values pass through the URL so the page stays shareable.

No JS? Fill the form by hand. The geolocation button needs JavaScript.